Location: *
(35.8942°N, 23.3025°E)
Time: 22:34:24
(UTC+00:00)

Cosmos 2219 Rocket - Pass Details

Date: 21 September 2021
Orbit: 828 x 846 km, 71.0° (Epoch: 22 October)

Event Time Altitude Azimuth Distance (km) Brightness Sun altitude
Exits shadow 01:53:16 22° 336° (NNW) 1,759 3.8 -28.5°
Drops below altitude 10° 01:55:48 10° 359° (N) 2,437 4.8 -28.0°
Sets 01:58:36 0° 11° (N) 3,375 5.8 -27.5°
